User: anonymous
Location: Waning Moon II Observatory
(30.3730°N, 89.7620°W)
Time: 04:10:18
(UTC-05:00)
Language:

Meteor 1-21 - Orbit

View from above orbital plane
View from above orbital plane
View from above satellite
View from above satellite

Ground track
Ground track

The orbit data is extracted from the following two-line orbital elements,

1 07714U 75023A   14244.15220961  .00000031  00000-0  10904-4 0  8842
2 07714 081.2073 104.8102 0032391 244.7588 231.7330 14.07812754341662
Epoch (UTC): 01 September 2014 03:39:10
Eccentricity: 0.0032391
inclination: 81.2073°
perigee height: 843 km
apogee height: 890 km
right ascension of ascending node: 104.8102°
argument of perigee: 244.7588°
revolutions per day: 14.07812754
mean anomaly at epoch: 231.7330°
orbit number at epoch: 34166

The dashed part of the orbit path shows where the satellite is in the earth's shadow,  

DLR